This is the latest recevied weather packets stored in our database for station/object SR2CPA-13. If no packets are shown the sender has not sent any weather packets the latest 10 day(s).
| Time | Temp. | Humidity | Pressure | Rain* | Wind** | Luminosity | Snow |
|---|---|---|---|---|---|---|---|
| 1777730072 | 25.56° C | 33% | 0 hPa | 0 mm | - | - | - |
| 1777729452 | 25.56° C | 30% | 0 hPa | 0 mm | - | - | - |
| 1777728852 | 25.56° C | 30% | 0 hPa | 0 mm | - | - | - |
| 1777728232 | 25.56° C | 30% | 0 hPa | 0 mm | - | - | - |
| 1777727632 | 25.56° C | 27% | 0 hPa | 0 mm | - | - | - |
| 1777727032 | 25.56° C | 30% | 0 hPa | 0 mm | - | - | - |
| 1777726412 | 25° C | 30% | 0 hPa | 0 mm | - | - | - |
| 1777725792 | 25° C | 31% | 0 hPa | 0 mm | - | - | - |
| 1777725192 | 25.56° C | 29% | 0 hPa | 0 mm | - | - | - |
| 1777724572 | 25° C | 30% | 0 hPa | 0 mm | - | - | - |
| 1777723972 | 25° C | 30% | 0 hPa | 0 mm | - | - | - |
| 1777723352 | 25° C | 35% | 0 hPa | 0 mm | - | - | - |
| 1777722752 | 24.44° C | 29% | 0 hPa | 0 mm | - | - | - |
| 1777722132 | 25.56° C | 29% | 0 hPa | 0 mm | - | - | - |
| 1777721532 | 24.44° C | 29% | 0 hPa | 0 mm | - | - | - |
| 1777720912 | 25° C | 30% | 0 hPa | 0 mm | - | - | - |
| 1777720312 | 25° C | 29% | 0 hPa | 0 mm | - | - | - |
| 1777719712 | 23.89° C | 26% | 0 hPa | 0 mm | - | - | - |
| 1777719112 | 24.44° C | 28% | 0 hPa | 0 mm | - | - | - |
| 1777718512 | 23.89° C | 27% | 0 hPa | 0 mm | - | - | - |
| 1777717892 | 23.89° C | 31% | 0 hPa | 0 mm | - | - | - |
| 1777717291 | 23.89° C | 32% | 0 hPa | 0 mm | - | - | - |
| 1777716672 | 23.89° C | 33% | 0 hPa | 0 mm | - | - | - |
| 1777716072 | 22.78° C | 31% | 0 hPa | 0 mm | - | - | - |
| 1777715452 | 23.89° C | 31% | 0 hPa | 0 mm | - | - | - |
* Rain latest hour (hover to see other rain measurements)
** Current wind speed in m/s (hover to see current wind gust speed)